Home   Weather   Wunstorf   Past weeks
Flag for Germany

Past Weather in Wunstorf, Lower Saxony, Germany — Yesterday and Last 2 Weeks

Now
45 °F

Quite cool.


Feels Like: 45 °F
Forecast: 75 / 46 °F
Wind: 2 mph from South

Location: Wunstorf Airport

Current Time: Sep 21, 2019 at 4:50:20 am

Latest Report: Sep 21, 2019 at 3:20 am


Visibility: N/A

Pressure: 30.24 "Hg

Humidity: 93%

Dew Point: 43 °F

Location of WunstorfLocation

Past Weather in Wunstorf — Graph

°F

Wunstorf Temperature Yesterday

Maximum temperature yesterday: 64 °F (at 3:20 pm)
Minimum temperature yesterday: 41 °F (at 6:20 am)
Average temperature yesterday: 52 °F

High & Low Weather Summary for the Past Weeks

 TemperatureHumidityPressure
High75 °F (Sep 15, 4:20 pm)100% (Sep 8, 12:20 am)30.57 "Hg (Sep 8, 12:20 am)
Low41 °F (Sep 20, 6:20 am)31% (Sep 15, 3:20 pm)29.89 "Hg (Sep 9, 3:20 pm)
Average57 °F75%30.19 "Hg
* Reported Sep 6 3:20 am — Sep 21 3:20 am, Wunstorf. Weather by CustomWeather, © 2019

Note: Actual official high and low records may vary slightly from our data, if they occured in-between our weather recording intervals... More about our weather records

Advertising

Wunstorf Weather History for the Previous 24 Hours

Scroll right to see more
 ConditionsComfort  
Time TempWeatherWind HumidityBarometerVisibility
3:20 am
Sat, Sep 21
45 °FQuite cool.2 mph93%30.24 "HgN/A
2:20 am46 °FCool.2 mph93%30.27 "HgN/A
1:20 am46 °FCool.1 mph93%30.27 "HgN/A
12:20 am48 °FCool.2 mph87%30.27 "HgN/A
11:20 pm
Fri, Sep 20
50 °FCool.5 mph88%30.27 "HgN/A
10:20 pm50 °FCool.1 mph88%30.30 "HgN/A
9:20 pm52 °FCool.1 mph82%30.30 "HgN/A
8:20 pm54 °FPassing clouds.No wind77%30.30 "HgN/A
7:20 pm59 °FPassing clouds.1 mph63%30.30 "HgN/A
6:20 pm63 °FPassing clouds.No wind52%30.30 "HgN/A
5:20 pm64 °FPassing clouds.2 mph46%30.33 "HgN/A
4:20 pm64 °FPassing clouds.3 mph49%30.33 "HgN/A
3:20 pm64 °FPassing clouds.3 mph46%30.36 "HgN/A
2:20 pm63 °FPassing clouds.5 mph49%30.39 "HgN/A
1:20 pm61 °FScattered clouds.2 mph52%30.39 "HgN/A
12:20 pm59 °FScattered clouds.3 mph59%30.39 "HgN/A
11:20 am55 °FPartly sunny.7 mph67%30.42 "HgN/A
10:20 am54 °FPartly sunny.6 mph72%30.42 "HgN/A
9:20 am50 °FPartly sunny.3 mph76%30.42 "HgN/A
8:20 am45 °FPartly sunny.1 mph87%30.39 "HgN/A
7:20 am41 °FPartly sunny.No wind100%30.39 "HgN/A
6:20 am41 °FPassing clouds.1 mph93%30.39 "HgN/A
5:20 am43 °FPassing clouds.No wind93%30.39 "HgN/A
4:20 am43 °FPassing clouds.1 mph93%30.39 "HgN/A
Weather by CustomWeather, © 2019

See weather overview